Location: Grange Verzio
(44.5000°N, 6.9833°E)
Time: 18:47:32
(UTC+00:00)

USA 281 - Pass Details

Date: 01 February 2023
Orbit: 1079 x 1080 km, 106.0° (Epoch: 28 March)

Event Time Altitude Azimuth Distance (km) Brightness Sun altitude
Rises 17:01:26 0° 19° (NNE) 3,888 5.8 -4.3°
Reaches altitude 10° 17:04:02 10° 14° (NNE) 2,929 5.2 -4.7°
Maximum altitude 17:10:15 47° 304° (WNW) 1,406 4.2 -5.8°
Drops below altitude 10° 17:16:26 10° 233° (SW) 2,915 6.9 -6.8°
Sets 17:19:02 0° 227° (SW) 3,867 7.5 -7.3°
